Location: Fontevrault
(47.1823°N, 0.0493°E)
Time: 09:58:55
(UTC+00:00)

Cosmos 1943 Rocket - Pass Details

Date: 16 June 2021
Orbit: 813 x 843 km, 71.0° (Epoch: 03 August)

Event Time Altitude Azimuth Distance (km) Brightness Sun altitude
Rises 22:51:07 0° 339° (NNW) 3,348 7.1 -17.7°
Reaches altitude 10° 22:54:16 10° 357° (N) 2,412 5.8 -17.9°
Maximum altitude 22:58:09 19° 42° (NE) 1,849 4.3 -18.0°
Drops below altitude 10° 23:02:02 10° 87° (E) 2,408 4.5 -18.2°
Enters shadow 23:04:24 - 102° (ESE) 3,093 4.9 -18.3°
